SQ6ELQ-11 Weather Reports


Display with metric or nautical units.
time (UTC)temp
F
wind
direction
speed
MPH
gust
MPH
rain 1hr
in
rain 24hr
in
rain mn
in
humidity
%
barometer
mb
20260505052406 57 0 0.0 0.0 0.00 0.00 0.00 53 1009.7
20260505050544 56 0 0.0 0.0 0.00 0.00 0.00 52 1010.0
20260505040906 54 0 0.0 0.0 0.00 0.00 0.00 53 1010.5
20260505035151 54 0 0.0 0.0 0.00 0.00 0.00 53 1010.6
20260505033341 54 0 0.0 0.0 0.00 0.00 0.00 53 1010.6
20260505031616 54 0 0.0 0.0 0.00 0.00 0.00 54 1010.6
20260505025801 55 0 0.0 0.0 0.00 0.00 0.00 55 1010.7
20260505023921 53 0 0.0 0.0 0.00 0.00 0.00 58 1010.9
20260505022131 51 0 0.0 0.0 0.00 0.00 0.00 65 1011.2
20260505020345 50 0 0.0 0.0 0.00 0.00 0.00 65 1011.5
20260505014536 50 0 0.0 0.0 0.00 0.00 0.00 64 1011.6
20260505012750 50 0 0.0 0.0 0.00 0.00 0.00 64 1011.7
20260505011111 50 0 0.0 0.0 0.00 0.00 0.00 64 1012.0
20260505005251 50 0 0.0 0.0 0.00 0.00 0.00 63 1012.3
20260505003406 50 0 0.0 0.0 0.00 0.00 0.00 62 1012.3
20260505001556 50 0 0.0 0.0 0.00 0.00 0.00 65 1012.4
20260504235811 50 0 0.0 0.0 0.00 0.00 0.00 63 1012.6
20260504233926 50 0 0.0 0.0 0.00 0.00 0.00 64 1012.8
20260504232146 51 0 0.0 0.0 0.00 0.00 0.00 63 1012.8
20260504230407 52 0 0.0 0.0 0.00 0.00 0.00 60 1013.1
20260504224541 52 0 0.0 0.0 0.00 0.00 0.00 58 1013.1
20260504222916 52 0 0.0 0.0 0.00 0.00 0.00 59 1013.4
20260504221136 51 0 0.0 0.0 0.00 0.00 0.00 58 1013.4
20260504215349 51 0 0.0 0.0 0.00 0.00 0.00 58 1013.5
20260504213520 52 0 0.0 0.0 0.00 0.00 0.00 59 1013.5
20260504211811 52 0 0.0 0.0 0.00 0.00 0.00 59 1013.4
20260504210046 53 0 0.0 0.0 0.00 0.00 0.00 57 1013.5
20260504204221 54 0 0.0 0.0 0.00 0.00 0.00 55 1013.4
20260504202431 55 0 0.0 0.0 0.00 0.00 0.00 54 1013.5
20260504200653 55 0 0.0 0.0 0.00 0.00 0.00 53 1013.6
20260504194941 57 0 0.0 0.0 0.00 0.00 0.00 51 1013.6
20260504193121 58 0 0.0 0.0 0.00 0.00 0.00 50 1013.6
20260504191431 59 0 0.0 0.0 0.00 0.00 0.00 48 1013.6
20260504185446 61 0 0.0 0.0 0.00 0.00 0.00 46 1013.5
20260504183651 63 0 0.0 0.0 0.00 0.00 0.00 40 1013.4
20260504181841 65 0 0.0 0.0 0.00 0.00 0.00 39 1013.3
20260504180131 67 0 0.0 0.0 0.00 0.00 0.00 33 1013.2
20260504174300 69 0 0.0 0.0 0.00 0.00 0.00 31 1013.1
20260504172623 69 0 0.0 0.0 0.00 0.00 0.00 29 1013.0
20260504170731 72 0 0.0 0.0 0.00 0.00 0.00 27 1012.9
20260504150346 77 0 0.0 0.0 0.00 0.00 0.00 23 1013.1
20260504140956 74 0 0.0 0.0 0.00 0.00 0.00 25 1013.4
20260504081202 66 0 0.0 0.0 0.00 0.00 0.00 33 1014.7